Weather History for GMME - February, 2014

Change the Weather History Date:

Sunday, February 16, 2014

  Actual Average Record
Temperature  
Mean Temperature 53 °F -  
Max Temperature 60 °F 64 °F 80 °F (2008)
Min Temperature 44 °F 47 °F 35 °F (2012)
Degree Days  
Heating Degree Days 12    
Growing Degree Days 3 (Base 50)    
Moisture  
Dew Point 46 °F    
Average Humidity 78    
Maximum Humidity 94    
Minimum Humidity 47    
Precipitation  
Precipitation 0.04 in 0.09 in - ()
Sea Level Pressure  
Sea Level Pressure 30.00 in    
Wind  
Wind Speed 6 mph ()    
Max Wind Speed 16 mph    
Max Gust Speed -    
Visibility 4.5 miles    
Events Rain    
Averages and records for this station are not official NWS values.
T = Trace of Precipitation, MM = Missing Value Source: Averaged Metar Reports

Daily Weather History Graph

Daily Weather History Graph

Search for Another Location

Airport or City:

Trip Planner

Search our weather history database for the weather conditions in past years. The results will help you decide how hot, cold, wet, or windy it might be!

Date:

Astronomy

Feb. 16, 2014 Rise Set
Actual Time 7:10 AM WET 6:11 PM WET
Civil Twilight 6:45 AM WET 6:37 PM WET
Nautical Twilight 6:16 AM WET 7:06 PM WET
Astronomical Twilight 5:47 AM WET 7:35 PM WET
Moon 7:48 PM WET (2/16) 7:39 AM WET (2/16)
Length of Visible Light 11h 51m
Length of Day
11h 00m
Full, 98% of the Moon is Illuminated
Feb 16
Full
Feb 22
Last Quarter
Mar 1
New
Mar 8
First Quarter
Mar 16
Full

Hourly Weather History & Observations

Time (WET) Temp. Windchill Dew Point Humidity Pressure Visibility Wind Dir Wind Speed Gust Speed Precip Events Conditions
12:00 AM 54 °F - 49 °F 79% 29.99 in 4 mi NNE 6.9 mph - - Rain Light Rain
12:00 AM 53.6 °F - 50.0 °F 88% 29.98 in 3.7 mi NNE 6.9 mph - N/A   Mostly Cloudy
12:30 AM 53.6 °F - 50.0 °F 88% 29.98 in 3.7 mi NNE 5.8 mph - N/A   Mostly Cloudy
1:00 AM 53.6 °F - 50.0 °F 88% 29.98 in 3.7 mi North 11.5 mph - N/A   Mostly Cloudy
1:30 AM 53.6 °F - 48.2 °F 82% 30.01 in 6.2 mi North 10.4 mph - N/A   Mostly Cloudy
2:00 AM 51.8 °F - 48.2 °F 88% 30.01 in 3.7 mi NNE 10.4 mph - N/A   Mostly Cloudy
2:30 AM 50.0 °F - 46.4 °F 87% 30.01 in 6.2 mi NE 4.6 mph - N/A   Mostly Cloudy
3:00 AM 51 °F - 47 °F 82% 30.01 in 4 mi ENE 3.5 mph - -   Partly Cloudy
3:00 AM 50.0 °F - 46.4 °F 87% 30.01 in 3.7 mi ENE 3.5 mph - N/A   Mostly Cloudy
3:30 AM 50.0 °F - 46.4 °F 87% 30.01 in 3.7 mi ENE 3.5 mph - N/A   Mostly Cloudy
4:00 AM 50.0 °F - 48.2 °F 94% 30.01 in 3.7 mi Variable 2.3 mph - N/A   Mostly Cloudy
4:30 AM 50.0 °F - 48.2 °F 94% 29.98 in 3.7 mi Variable 2.3 mph - N/A   Mostly Cloudy
5:00 AM 50.0 °F - 46.4 °F 87% 30.01 in 3.7 mi Variable 2.3 mph - N/A   Mostly Cloudy
5:30 AM 50.0 °F - 48.2 °F 94% 30.01 in 3.7 mi Variable 1.2 mph - N/A   Mostly Cloudy
6:00 AM 50 °F - 47 °F 88% 30.04 in 4 mi ESE 2.3 mph - - Rain Light Rain
6:30 AM 50.0 °F - 46.4 °F 87% 30.04 in 3.7 mi Variable 2.3 mph - N/A   Mostly Cloudy
7:00 AM 50.0 °F - 46.4 °F 87% 30.04 in 3.7 mi ESE 3.5 mph - N/A   Mostly Cloudy
7:30 AM 50.0 °F - 46.4 °F 87% 30.04 in 3.7 mi Variable 2.3 mph - N/A   Mostly Cloudy
8:00 AM 50.0 °F - 48.2 °F 94% 30.04 in 3.7 mi Variable 2.3 mph - N/A   Mostly Cloudy
8:30 AM 50.0 °F - 48.2 °F 94% 30.06 in 3.7 mi Variable 1.2 mph - N/A   Mostly Cloudy
9:00 AM 52 °F - 49 °F 85% 30.10 in 4 mi Calm Calm - -   Overcast
9:00 AM 51.8 °F - 48.2 °F 88% 30.06 in 3.7 mi Calm Calm - N/A   Mostly Cloudy
9:30 AM 51.8 °F - 48.2 °F 88% 30.06 in 3.7 mi Variable 2.3 mph - N/A   Mostly Cloudy
10:00 AM 53.6 °F - 48.2 °F 82% 30.06 in 3.7 mi Variable 2.3 mph - N/A   Mostly Cloudy
10:30 AM 55.4 °F - 48.2 °F 77% 30.06 in 5.0 mi ENE 3.5 mph - N/A   Mostly Cloudy
11:00 AM 57.2 °F - 48.2 °F 72% 30.06 in 5.0 mi NNE 5.8 mph - N/A   Mostly Cloudy
11:30 AM 57.2 °F - 44.6 °F 63% 30.06 in 5.0 mi NE 5.8 mph - N/A   Scattered Clouds
12:00 PM 59 °F - 44 °F 47% 30.06 in 5 mi NNE 9.2 mph - -   Mostly Cloudy
12:00 PM 59.0 °F - 44.6 °F 59% 30.04 in 5.0 mi NNE 9.2 mph - N/A   Scattered Clouds
12:30 PM 59.0 °F - 46.4 °F 63% 30.04 in 5.0 mi North 9.2 mph - N/A   Scattered Clouds
1:30 PM 59.0 °F - 46.4 °F 63% 30.01 in 5.0 mi North 15.0 mph - N/A   Scattered Clouds
2:00 PM 59.0 °F - 48.2 °F 67% 30.01 in 5.0 mi North 13.8 mph - N/A   Scattered Clouds
2:30 PM 59.0 °F - 48.2 °F 67% 30.01 in 5.0 mi NNE 15.0 mph - N/A   Scattered Clouds
3:00 PM 58 °F - 47 °F 58% 30.00 in 5 mi North 15.0 mph - -   Mostly Cloudy
3:00 PM 59.0 °F - 46.4 °F 63% 29.98 in 5.0 mi North 15.0 mph - N/A   Mostly Cloudy
3:30 PM 59.0 °F - 46.4 °F 63% 29.98 in 5.0 mi North 16.1 mph - N/A   Mostly Cloudy
4:00 PM 59.0 °F - 46.4 °F 63% 29.98 in 5.0 mi North 16.1 mph - N/A   Mostly Cloudy
4:30 PM 57.2 °F - 46.4 °F 67% 29.98 in 5.0 mi North 13.8 mph - N/A   Scattered Clouds
5:00 PM 57.2 °F - 44.6 °F 63% 29.98 in 5.0 mi NNE 15.0 mph - N/A   Scattered Clouds
5:30 PM 55.4 °F - 44.6 °F 67% 29.98 in 5.0 mi NNE 12.7 mph - N/A   Scattered Clouds
6:00 PM 54 °F - 45 °F 63% 29.98 in 5 mi NNE 11.5 mph - -   Mostly Cloudy
6:00 PM 53.6 °F - 44.6 °F 72% 29.95 in 5.0 mi NNE 11.5 mph - N/A   Scattered Clouds
6:30 PM 53.6 °F - 44.6 °F 72% 29.95 in 5.0 mi NNE 9.2 mph - N/A   Scattered Clouds
7:00 PM 51.8 °F - 44.6 °F 76% 29.95 in 5.0 mi NE 6.9 mph - N/A   Scattered Clouds
7:30 PM 51.8 °F - 44.6 °F 76% 29.98 in 5.0 mi ENE 4.6 mph - N/A   Scattered Clouds
8:00 PM 50.0 °F - 44.6 °F 82% 29.98 in 5.0 mi NE 5.8 mph - N/A   Scattered Clouds
8:30 PM 50.0 °F - 44.6 °F 82% 29.95 in 5.0 mi ENE 4.6 mph - N/A   Scattered Clouds
9:00 PM 50 °F - 44 °F 74% 29.98 in 5 mi ENE 3.5 mph - -   Partly Cloudy
9:00 PM 50.0 °F - 44.6 °F 82% 29.95 in 5.0 mi ENE 3.5 mph - N/A   Scattered Clouds
9:30 PM 50.0 °F - 44.6 °F 82% 29.95 in 5.0 mi East 3.5 mph - N/A   Scattered Clouds
10:00 PM 48.2 °F - 42.8 °F 82% 29.95 in 5.0 mi Calm Calm - N/A   Scattered Clouds
10:30 PM 46.4 °F - 41.0 °F 81% 29.95 in 5.0 mi Variable 1.2 mph - N/A   Scattered Clouds
11:00 PM 46.4 °F 45.2 °F 42.8 °F 87% 29.95 in 5.0 mi ESE 3.5 mph - N/A   Scattered Clouds
11:30 PM 44.6 °F - 41.0 °F 87% 29.95 in 5.0 mi Variable 2.3 mph - N/A   Scattered Clouds